Weather History for Fort Leonard Wood, MO

Change the Weather History Date:

Tuesday, September 24, 2013

  Actual Average Record
Temperature  
Mean Temperature 68 °F -  
Max Temperature 81 °F 74 °F 86 °F (2003)
Min Temperature 54 °F 54 °F 44 °F (2012)
Cooling Degree Days 2    
Growing Degree Days 18 (Base 50)    
Moisture  
Dew Point 58 °F    
Average Humidity 79    
Maximum Humidity 100    
Minimum Humidity 48    
Precipitation  
Precipitation 0.00 in - - ()
Sea Level Pressure  
Sea Level Pressure 29.85 in    
Wind  
Wind Speed 6 mph (South)    
Max Wind Speed 9 mph    
Max Gust Speed -    
Visibility 10 miles    
Events      
Averages and records for this station are not official NWS values.
T = Trace of Precipitation, MM = Missing Value Source: NWS Daily Summary

Daily Weather History Graph

Daily Weather History Graph

Search for Another Location

Airport:

Trip Planner

Search our weather history database for the weather conditions in past years. The results will help you decide how hot, cold, wet, or windy it might be!

Date:

Astronomy

Sep. 24, 2013 Rise Set
Actual Time 6:58 AM CDT 7:02 PM CDT
Civil Twilight 6:32 AM CDT 7:28 PM CDT
Nautical Twilight 6:01 AM CDT 7:58 PM CDT
Astronomical Twilight 5:30 AM CDT 8:29 PM CDT
Moon 10:25 PM CDT (9/24) 12:07 PM CDT (9/24)
Length of Visible Light 12h 56m
Length of Day
12h 03m
Waning Gibbous, 73% of the Moon is Illuminated
Sep 24
Waning Gibbous
Sep 26
Last Quarter
Oct 4
New
Oct 11
First Quarter
Oct 18
Full

Hourly Weather History & Observations

Time (CDT) Temp. Heat Index Dew Point Humidity Pressure Visibility Wind Dir Wind Speed Gust Speed Precip Events Conditions
12:58 AM 56.1 °F - 54.7 °F 95% 29.92 in 10.0 mi SSE 4.6 mph - N/A   Clear
1:58 AM 54.5 °F - 54.1 °F 99% 29.92 in 10.0 mi SSE 4.6 mph - N/A   Clear
2:58 AM 54.5 °F - 54.5 °F 100% 29.90 in 10.0 mi SE 8.1 mph - N/A   Clear
3:58 AM 54.5 °F - 54.3 °F 99% 29.90 in 10.0 mi SSE 3.5 mph - N/A   Mostly Cloudy
4:58 AM 54.9 °F - 54.9 °F 100% 29.89 in 10.0 mi SE 8.1 mph - N/A   Overcast
5:58 AM 55.6 °F - 55.2 °F 99% 29.89 in 10.0 mi SE 8.1 mph - N/A   Mostly Cloudy
6:58 AM 56.1 °F - 56.1 °F 100% 29.88 in 10.0 mi SSE 5.8 mph - N/A   Mostly Cloudy
7:58 AM 58.1 °F - 58.1 °F 100% 29.90 in 10.0 mi SSE 6.9 mph - N/A   Mostly Cloudy
8:58 AM 63.3 °F - 59.4 °F 87% 29.88 in 10.0 mi SE 9.2 mph - N/A   Clear
9:58 AM 67.6 °F - 60.3 °F 77% 29.86 in 10.0 mi SE 8.1 mph - N/A   Clear
10:58 AM 74.3 °F - 61.0 °F 63% 29.86 in 10.0 mi Variable 4.6 mph - N/A   Clear
11:58 AM 77.2 °F - 60.8 °F 57% 29.85 in 10.0 mi Variable 5.8 mph - N/A   Clear
12:58 PM 79.7 °F - 59.4 °F 50% 29.83 in 10.0 mi SSE 9.2 mph - N/A   Clear
1:58 PM 80.1 °F 80.8 °F 59.2 °F 49% 29.81 in 10.0 mi South 5.8 mph - N/A   Partly Cloudy
2:58 PM 81.3 °F 81.8 °F 59.9 °F 48% 29.80 in 10.0 mi Variable 4.6 mph - N/A   Partly Cloudy
3:58 PM 80.1 °F 80.7 °F 59.0 °F 48% 29.80 in 10.0 mi Variable 4.6 mph - N/A   Clear
4:58 PM 77.9 °F - 59.5 °F 53% 29.81 in 10.0 mi Variable 5.8 mph - N/A   Clear
5:58 PM 76.3 °F - 59.9 °F 57% 29.81 in 10.0 mi West 4.6 mph - N/A   Clear
6:58 PM 70.2 °F - 59.7 °F 69% 29.83 in 10.0 mi West 5.8 mph - N/A   Scattered Clouds
7:58 PM 66.9 °F - 59.9 °F 78% 29.83 in 10.0 mi West 3.5 mph - N/A   Scattered Clouds
8:58 PM 63.5 °F - 59.7 °F 87% 29.82 in 10.0 mi WNW 4.6 mph - N/A   Clear
9:58 PM 62.6 °F - 59.4 °F 89% 29.83 in 10.0 mi Calm Calm - N/A   Clear
10:58 PM 60.3 °F - 59.9 °F 99% 29.83 in 10.0 mi North 1.2 mph - N/A   Overcast
11:58 PM 61.5 °F - 60.3 °F 96% 29.83 in 10.0 mi North 3.5 mph - N/A   Overcast